| time (UTC) | temp C | wind direction | speed KPH | gust KPH | rain 1hr cm | rain 24hr cm | rain mn cm | humidity % | barometer mb |
| 20260502163051 | 15 | 317 | 35.4 | 0.0 | 0.00 | 0.00 | 0.00 | 50 | 1007.9 |
| 20260502161611 | 15 | 337 | 33.8 | 0.0 | 0.00 | 0.00 | 0.00 | 46 | 1007.6 |
| 20260502160105 | 15 | 320 | 25.7 | 0.0 | 0.00 | 0.00 | 0.00 | 46 | 1007.3 |
| 20260502151539 | 15 | 261 | 12.9 | 0.0 | 0.00 | 0.00 | 0.00 | 51 | 1007.0 |
| 20260502123005 | 8 | 241 | 4.8 | 0.0 | 0.00 | 0.00 | 0.00 | 57 | 1007.8 |
| 20260502121502 | 8 | 218 | 4.8 | 0.0 | 0.00 | 0.00 | 0.00 | 56 | 1007.8 |
| 20260502120137 | 7 | 242 | 4.8 | 0.0 | 0.00 | 0.00 | 0.00 | 56 | 1007.6 |
| 20260502114559 | 7 | 225 | 4.8 | 0.0 | 0.00 | 0.00 | 0.00 | 57 | 1007.8 |
| 20260502113057 | 7 | 240 | 3.2 | 0.0 | 0.00 | 0.00 | 0.00 | 57 | 1008.0 |
| 20260502111557 | 7 | 206 | 4.8 | 0.0 | 0.00 | 0.00 | 0.00 | 56 | 1008.0 |
| 20260502110057 | 7 | 175 | 4.8 | 0.0 | 0.00 | 0.00 | 0.00 | 56 | 1008.0 |
| 20260502104556 | 7 | 208 | 3.2 | 0.0 | 0.00 | 0.00 | 0.00 | 56 | 1008.3 |
| 20260502103053 | 8 | 205 | 3.2 | 0.0 | 0.00 | 0.00 | 0.00 | 53 | 1008.5 |
| 20260502101559 | 9 | 236 | 6.4 | 0.0 | 0.00 | 0.00 | 0.00 | 49 | 1008.7 |
| 20260502071522 | 5 | 185 | 3.2 | 0.0 | 0.00 | 0.00 | 0.00 | 62 | 1011.0 |
| 20260502070022 | 5 | 186 | 3.2 | 0.0 | 0.00 | 0.00 | 0.00 | 61 | 1011.2 |
| 20260502064517 | 6 | 187 | 3.2 | 0.0 | 0.00 | 0.00 | 0.00 | 59 | 1011.1 |
| 20260502063013 | 6 | 188 | 4.8 | 0.0 | 0.00 | 0.00 | 0.00 | 58 | 1011.3 |
| 20260502061512 | 6 | 193 | 4.8 | 0.0 | 0.00 | 0.00 | 0.00 | 58 | 1011.4 |
| 20260502060008 | 6 | 184 | 4.8 | 0.0 | 0.00 | 0.00 | 0.00 | 58 | 1011.5 |
| 20260502054517 | 5 | 218 | 4.8 | 0.0 | 0.00 | 0.00 | 0.00 | 62 | 1011.4 |
| 20260502053006 | 4 | 256 | 3.2 | 0.0 | 0.00 | 0.00 | 0.00 | 63 | 1011.4 |
| 20260502051504 | 4 | 256 | 3.2 | 0.0 | 0.00 | 0.00 | 0.00 | 63 | 1011.6 |
| 20260502050015 | 4 | 257 | 3.2 | 0.0 | 0.00 | 0.00 | 0.00 | 60 | 1012.0 |
| 20260502044502 | 6 | 258 | 4.8 | 0.0 | 0.00 | 0.00 | 0.00 | 56 | 1012.3 |
| 20260502043119 | 5 | 260 | 3.2 | 0.0 | 0.00 | 0.00 | 0.00 | 56 | 1012.4 |
| 20260502041559 | 6 | 260 | 3.2 | 0.0 | 0.00 | 0.00 | 0.00 | 55 | 1012.6 |
| 20260502040106 | 5 | 260 | 3.2 | 0.0 | 0.00 | 0.00 | 0.00 | 56 | 1012.8 |
| 20260502034604 | 6 | 260 | 0.0 | 0.0 | 0.00 | 0.00 | 0.00 | 53 | 1012.9 |
| 20260502033103 | 7 | 260 | 0.0 | 0.0 | 0.00 | 0.00 | 0.00 | 52 | 1013.1 |
| 20260502031555 | 7 | 260 | 0.0 | 0.0 | 0.00 | 0.00 | 0.00 | 50 | 1013.1 |
| 20260502030055 | 7 | 260 | 1.6 | 0.0 | 0.00 | 0.00 | 0.00 | 49 | 1013.2 |
| 20260502024609 | 8 | 260 | 1.6 | 0.0 | 0.00 | 0.00 | 0.00 | 47 | 1013.1 |
| 20260502023054 | 9 | 260 | 1.6 | 0.0 | 0.00 | 0.00 | 0.00 | 44 | 1013.1 |
| 20260502021600 | 11 | 260 | 1.6 | 0.0 | 0.00 | 0.00 | 0.00 | 42 | 1013.1 |
| 20260502020055 | 12 | 260 | 1.6 | 0.0 | 0.00 | 0.00 | 0.00 | 37 | 1013.0 |
| 20260502014552 | 15 | 260 | 1.6 | 0.0 | 0.00 | 0.00 | 0.00 | 32 | 1013.0 |
| 20260502013051 | 17 | 260 | 0.0 | 0.0 | 0.00 | 0.00 | 0.00 | 29 | 1013.1 |
| 20260502011550 | 18 | 260 | 1.6 | 0.0 | 0.00 | 0.00 | 0.00 | 28 | 1013.1 |
| 20260502010055 | 18 | 263 | 3.2 | 0.0 | 0.00 | 0.00 | 0.00 | 27 | 1013.2 |
| 20260502004600 | 18 | 269 | 6.4 | 0.0 | 0.00 | 0.00 | 0.00 | 26 | 1013.3 |
| 20260502003046 | 19 | 258 | 6.4 | 0.0 | 0.00 | 0.00 | 0.00 | 26 | 1013.6 |
| 20260502001546 | 19 | 277 | 6.4 | 0.0 | 0.00 | 0.00 | 0.00 | 25 | 1013.6 |
| 20260502000045 | 20 | 250 | 6.4 | 0.0 | 0.00 | 0.00 | 0.00 | 25 | 1013.6 |
| 20260501234543 | 20 | 270 | 6.4 | 0.0 | 0.00 | 0.00 | 0.00 | 24 | 1013.8 |
| 20260501233046 | 20 | 232 | 9.7 | 0.0 | 0.00 | 0.00 | 0.00 | 24 | 1014.0 |
| 20260501231543 | 20 | 255 | 8.0 | 0.0 | 0.00 | 0.00 | 0.00 | 25 | 1014.1 |
| 20260501230040 | 20 | 262 | 8.0 | 0.0 | 0.00 | 0.00 | 0.00 | 25 | 1014.3 |
| 20260501224546 | 20 | 214 | 8.0 | 0.0 | 0.00 | 0.00 | 0.00 | 25 | 1014.4 |
| 20260501223037 | 20 | 277 | 8.0 | 0.0 | 0.00 | 0.00 | 0.00 | 27 | 1014.5 |
| 20260501221535 | 19 | 186 | 8.0 | 0.0 | 0.00 | 0.00 | 0.00 | 26 | 1014.6 |
| 20260501220037 | 19 | 277 | 6.4 | 0.0 | 0.00 | 0.00 | 0.00 | 27 | 1014.8 |
| 20260501214531 | 19 | 275 | 6.4 | 0.0 | 0.00 | 0.00 | 0.00 | 27 | 1015.1 |
| 20260501213044 | 19 | 251 | 9.7 | 0.0 | 0.00 | 0.00 | 0.00 | 26 | 1015.4 |
| 20260501211528 | 18 | 309 | 9.7 | 0.0 | 0.00 | 0.00 | 0.00 | 28 | 1015.5 |
| 20260501210038 | 18 | 298 | 9.7 | 0.0 | 0.00 | 0.00 | 0.00 | 29 | 1015.8 |
| 20260501204527 | 18 | 257 | 9.7 | 0.0 | 0.00 | 0.00 | 0.00 | 29 | 1015.8 |
| 20260501203025 | 18 | 252 | 11.3 | 0.0 | 0.00 | 0.00 | 0.00 | 29 | 1015.9 |
| 20260501201528 | 18 | 315 | 9.7 | 0.0 | 0.00 | 0.00 | 0.00 | 30 | 1016.0 |
| 20260501200021 | 18 | 333 | 12.9 | 0.0 | 0.00 | 0.00 | 0.00 | 29 | 1016.2 |
| 20260501194524 | 18 | 309 | 11.3 | 0.0 | 0.00 | 0.00 | 0.00 | 30 | 1016.2 |
| 20260501193016 | 17 | 232 | 8.0 | 0.0 | 0.00 | 0.00 | 0.00 | 30 | 1016.3 |
| 20260501191514 | 17 | 263 | 9.7 | 0.0 | 0.00 | 0.00 | 0.00 | 31 | 1016.4 |
| 20260501190012 | 17 | 270 | 9.7 | 0.0 | 0.00 | 0.00 | 0.00 | 31 | 1016.6 |
| 20260501184509 | 17 | 297 | 11.3 | 0.0 | 0.00 | 0.00 | 0.00 | 31 | 1016.8 |
| 20260501183005 | 16 | 294 | 11.3 | 0.0 | 0.00 | 0.00 | 0.00 | 31 | 1017.0 |
| 20260501181501 | 16 | 240 | 9.7 | 0.0 | 0.00 | 0.00 | 0.00 | 34 | 1017.2 |